Location: ????
(55.5675°N, 37.6272°E)
Time: 06:42:54
(UTC+00:00)

Cosmos 1980 Rocket - Pass Details

Date: 14 April 2026
Orbit: 826 x 850 km, 71.0° (Epoch: 13 May)

Event Time Altitude Azimuth Distance (km) Brightness Sun altitude
Rises 20:58:30 0° 321° (NW) 3,418 6.3 -24.5°
Reaches altitude 10° 21:01:19 10° 333° (NNW) 2,483 5.6 -24.5°
Maximum altitude 21:06:12 28° 32° (NNE) 1,539 4.0 -24.6°
Drops below altitude 10° 21:11:06 10° 91° (E) 2,482 4.6 -24.7°
Enters shadow 21:12:46 - 99° (E) 3,027 5.0 -24.7°
